| time (UTC) | temp F | wind direction | speed MPH | gust MPH | rain 1hr in | rain 24hr in | rain mn in | humidity % | barometer mb |
| 20260505163535 | 51 | 186 | 1.0 | 5.0 | 0.00 | 0.16 | 0.14 | 83 | 1011.2 |
| 20260505163055 | 51 | 141 | 1.0 | 5.0 | 0.00 | 0.16 | 0.14 | 84 | 1011.2 |
| 20260505162535 | 51 | 189 | 1.0 | 5.0 | 0.00 | 0.16 | 0.14 | 83 | 1011.3 |
| 20260505162035 | 51 | 0 | 1.0 | 6.0 | 0.00 | 0.16 | 0.14 | 82 | 1011.3 |
| 20260505161548 | 52 | 157 | 1.0 | 6.0 | 0.00 | 0.16 | 0.14 | 81 | 1011.3 |
| 20260505161036 | 53 | 210 | 1.0 | 6.0 | 0.00 | 0.16 | 0.14 | 80 | 1011.3 |
| 20260505160538 | 53 | 124 | 2.0 | 5.0 | 0.00 | 0.16 | 0.14 | 79 | 1011.2 |
| 20260505153104 | 53 | 0 | 0.0 | 5.0 | 0.00 | 0.16 | 0.14 | 82 | 1011.5 |
| 20260505152534 | 53 | 0 | 0.0 | 7.0 | 0.00 | 0.16 | 0.14 | 81 | 1011.4 |
| 20260505152037 | 53 | 132 | 1.0 | 7.0 | 0.00 | 0.16 | 0.14 | 80 | 1011.4 |
| 20260505151550 | 53 | 0 | 2.0 | 10.0 | 0.00 | 0.16 | 0.14 | 81 | 1011.5 |
| 20260505151035 | 53 | 168 | 2.0 | 10.0 | 0.00 | 0.16 | 0.14 | 81 | 1011.3 |
| 20260505150539 | 53 | 202 | 3.0 | 9.0 | 0.00 | 0.16 | 0.14 | 79 | 1011.3 |
| 20260505140535 | 52 | 182 | 1.0 | 5.0 | 0.00 | 0.16 | 0.14 | 84 | 1011.6 |
| 20260505125035 | 49 | 0 | 0.0 | 3.0 | 0.00 | 0.16 | 0.14 | 88 | 1012.2 |
| 20260505124541 | 49 | 0 | 0.0 | 3.0 | 0.00 | 0.16 | 0.14 | 88 | 1012.2 |
| 20260505124036 | 49 | 0 | 0.0 | 3.0 | 0.00 | 0.16 | 0.14 | 88 | 1012.3 |
| 20260505123537 | 49 | 0 | 0.0 | 2.0 | 0.00 | 0.16 | 0.14 | 88 | 1012.3 |
| 20260505123103 | 49 | 0 | 0.0 | 3.0 | 0.00 | 0.16 | 0.14 | 89 | 1012.3 |
| 20260505122535 | 48 | 0 | 0.0 | 3.0 | 0.00 | 0.16 | 0.14 | 89 | 1012.3 |
| 20260505122035 | 48 | 144 | 0.0 | 3.0 | 0.00 | 0.16 | 0.14 | 89 | 1012.4 |
| 20260505121546 | 48 | 0 | 0.0 | 3.0 | 0.00 | 0.16 | 0.14 | 89 | 1012.4 |
| 20260505121040 | 48 | 144 | 0.0 | 3.0 | 0.00 | 0.16 | 0.14 | 90 | 1012.4 |
| 20260505120536 | 48 | 0 | 0.0 | 4.0 | 0.00 | 0.16 | 0.14 | 90 | 1012.4 |
| 20260505120050 | 48 | 144 | 0.0 | 4.0 | 0.00 | 0.16 | 0.14 | 90 | 1012.5 |
| 20260505115535 | 48 | 144 | 0.0 | 3.0 | 0.00 | 0.16 | 0.14 | 88 | 1012.4 |
| 20260505115036 | 48 | 144 | 0.0 | 5.0 | 0.00 | 0.16 | 0.14 | 88 | 1012.5 |
| 20260505114600 | 48 | 150 | 0.0 | 5.0 | 0.00 | 0.16 | 0.14 | 87 | 1012.5 |
| 20260505114035 | 48 | 168 | 0.0 | 4.0 | 0.00 | 0.16 | 0.14 | 88 | 1012.6 |
| 20260505113535 | 48 | 151 | 1.0 | 4.0 | 0.00 | 0.16 | 0.14 | 89 | 1012.6 |
| 20260505113050 | 48 | 126 | 1.0 | 6.0 | 0.00 | 0.16 | 0.14 | 88 | 1012.6 |
| 20260505112535 | 48 | 0 | 1.0 | 7.0 | 0.00 | 0.16 | 0.14 | 87 | 1012.6 |
| 20260505112035 | 48 | 0 | 0.0 | 7.0 | 0.00 | 0.16 | 0.14 | 88 | 1012.7 |
| 20260505111557 | 48 | 221 | 1.0 | 4.0 | 0.00 | 0.16 | 0.14 | 88 | 1012.7 |
| 20260505111036 | 48 | 188 | 1.0 | 3.0 | 0.00 | 0.16 | 0.14 | 89 | 1012.7 |
| 20260505110536 | 47 | 136 | 0.0 | 3.0 | 0.00 | 0.16 | 0.14 | 88 | 1012.8 |
| 20260505102035 | 46 | 0 | 0.0 | 4.0 | 0.00 | 0.16 | 0.14 | 88 | 1013.0 |
| 20260505101546 | 46 | 143 | 1.0 | 3.0 | 0.00 | 0.16 | 0.14 | 88 | 1013.0 |
| 20260505101036 | 46 | 143 | 1.0 | 5.0 | 0.00 | 0.16 | 0.14 | 88 | 1013.0 |
| 20260505100536 | 47 | 143 | 0.0 | 5.0 | 0.00 | 0.16 | 0.14 | 90 | 1013.0 |
| 20260505100044 | 47 | 143 | 1.0 | 5.0 | 0.00 | 0.16 | 0.14 | 90 | 1013.0 |
| 20260505095535 | 47 | 138 | 0.0 | 3.0 | 0.00 | 0.16 | 0.14 | 90 | 1013.0 |
| 20260505095039 | 47 | 138 | 0.0 | 3.0 | 0.00 | 0.16 | 0.14 | 90 | 1013.1 |
| 20260505094550 | 46 | 0 | 0.0 | 3.0 | 0.00 | 0.16 | 0.14 | 91 | 1013.0 |
| 20260505094035 | 46 | 0 | 1.0 | 3.0 | 0.00 | 0.16 | 0.14 | 91 | 1013.1 |
| 20260505093535 | 46 | 0 | 0.0 | 2.0 | 0.00 | 0.16 | 0.14 | 90 | 1013.1 |
| 20260505093050 | 46 | 0 | 0.0 | 3.0 | 0.00 | 0.16 | 0.14 | 90 | 1013.1 |
| 20260505092538 | 46 | 0 | 0.0 | 3.0 | 0.00 | 0.16 | 0.14 | 90 | 1013.0 |
| 20260505092036 | 46 | 0 | 0.0 | 3.0 | 0.00 | 0.16 | 0.14 | 89 | 1013.0 |
| 20260505091550 | 46 | 0 | 0.0 | 2.0 | 0.00 | 0.16 | 0.14 | 90 | 1013.1 |
| 20260505091035 | 46 | 0 | 0.0 | 2.0 | 0.00 | 0.16 | 0.14 | 90 | 1013.1 |
| 20260505090535 | 46 | 0 | 0.0 | 2.0 | 0.00 | 0.16 | 0.14 | 91 | 1013.1 |
| 20260505090100 | 46 | 0 | 0.0 | 2.0 | 0.00 | 0.16 | 0.14 | 91 | 1013.1 |
| 20260505085536 | 45 | 0 | 0.0 | 1.0 | 0.00 | 0.16 | 0.14 | 91 | 1013.1 |
| 20260505085036 | 45 | 0 | 0.0 | 1.0 | 0.00 | 0.16 | 0.14 | 92 | 1013.1 |
| 20260505084542 | 45 | 0 | 0.0 | 1.0 | 0.00 | 0.16 | 0.14 | 92 | 1013.1 |
| 20260505084039 | 45 | 0 | 0.0 | 2.0 | 0.00 | 0.16 | 0.14 | 92 | 1013.1 |
| 20260505083538 | 44 | 0 | 0.0 | 2.0 | 0.00 | 0.16 | 0.14 | 92 | 1013.1 |
| 20260505083056 | 44 | 138 | 0.0 | 2.0 | 0.00 | 0.16 | 0.14 | 93 | 1013.1 |
| 20260505082536 | 44 | 0 | 0.0 | 2.0 | 0.00 | 0.16 | 0.14 | 92 | 1013.0 |
| 20260505082036 | 44 | 0 | 0.0 | 3.0 | 0.00 | 0.16 | 0.14 | 93 | 1013.1 |
| 20260505081548 | 44 | 0 | 0.0 | 4.0 | 0.00 | 0.16 | 0.14 | 93 | 1013.0 |
| 20260505081036 | 44 | 0 | 1.0 | 4.0 | 0.00 | 0.16 | 0.14 | 94 | 1013.1 |
| 20260505080535 | 44 | 0 | 0.0 | 2.0 | 0.00 | 0.16 | 0.14 | 93 | 1013.1 |
| 20260505080051 | 44 | 109 | 0.0 | 2.0 | 0.00 | 0.16 | 0.14 | 94 | 1013.2 |
| 20260505075535 | 44 | 0 | 0.0 | 2.0 | 0.00 | 0.16 | 0.14 | 93 | 1013.2 |
| 20260505075035 | 43 | 0 | 0.0 | 2.0 | 0.00 | 0.16 | 0.14 | 94 | 1013.3 |
| 20260505074541 | 43 | 0 | 0.0 | 2.0 | 0.00 | 0.15 | 0.14 | 93 | 1013.2 |
| 20260505074038 | 43 | 109 | 0.0 | 2.0 | 0.00 | 0.15 | 0.14 | 93 | 1013.3 |
| 20260505073539 | 43 | 0 | 0.0 | 2.0 | 0.00 | 0.15 | 0.14 | 93 | 1013.4 |
| 20260505073056 | 43 | 109 | 0.0 | 2.0 | 0.00 | 0.15 | 0.14 | 93 | 1013.5 |
| 20260505072540 | 43 | 0 | 0.0 | 2.0 | 0.00 | 0.15 | 0.14 | 93 | 1013.4 |
| 20260505072036 | 43 | 0 | 0.0 | 1.0 | 0.00 | 0.15 | 0.14 | 93 | 1013.4 |
| 20260505071544 | 43 | 109 | 0.0 | 2.0 | 0.00 | 0.15 | 0.14 | 93 | 1013.6 |
| 20260505071036 | 43 | 0 | 0.0 | 2.0 | 0.00 | 0.15 | 0.14 | 93 | 1013.5 |
| 20260505070536 | 43 | 0 | 0.0 | 2.0 | 0.00 | 0.15 | 0.14 | 93 | 1013.6 |
| 20260505070052 | 43 | 0 | 0.0 | 2.0 | 0.00 | 0.15 | 0.14 | 93 | 1013.6 |
| 20260505065535 | 43 | 0 | 0.0 | 2.0 | 0.00 | 0.15 | 0.14 | 93 | 1013.6 |
| 20260505065036 | 43 | 109 | 0.0 | 2.0 | 0.01 | 0.15 | 0.14 | 93 | 1013.6 |
| 20260505064543 | 43 | 0 | 0.0 | 2.0 | 0.01 | 0.15 | 0.14 | 93 | 1013.6 |
| 20260505064035 | 43 | 0 | 0.0 | 2.0 | 0.02 | 0.15 | 0.14 | 93 | 1013.6 |
| 20260505063535 | 43 | 0 | 0.0 | 2.0 | 0.03 | 0.15 | 0.14 | 93 | 1013.5 |
| 20260505063053 | 43 | 0 | 0.0 | 2.0 | 0.03 | 0.15 | 0.14 | 93 | 1013.5 |
| 20260505062536 | 43 | 0 | 0.0 | 2.0 | 0.04 | 0.15 | 0.14 | 93 | 1013.5 |
| 20260505062035 | 43 | 109 | 0.0 | 2.0 | 0.05 | 0.15 | 0.14 | 94 | 1013.6 |
| 20260505061550 | 43 | 0 | 0.0 | 2.0 | 0.06 | 0.15 | 0.14 | 94 | 1013.7 |
| 20260505061036 | 43 | 0 | 0.0 | 1.0 | 0.06 | 0.15 | 0.14 | 94 | 1013.6 |
| 20260505060536 | 43 | 0 | 0.0 | 2.0 | 0.07 | 0.15 | 0.14 | 93 | 1013.7 |
| 20260505060046 | 43 | 0 | 0.0 | 2.0 | 0.07 | 0.15 | 0.14 | 93 | 1013.8 |
| 20260505055537 | 43 | 0 | 0.0 | 2.0 | 0.06 | 0.14 | 0.13 | 93 | 1013.8 |
| 20260505055038 | 43 | 0 | 0.0 | 2.0 | 0.06 | 0.14 | 0.12 | 93 | 1013.8 |
| 20260505054551 | 43 | 109 | 0.0 | 2.0 | 0.06 | 0.14 | 0.12 | 93 | 1013.8 |
| 20260505054036 | 43 | 0 | 0.0 | 2.0 | 0.06 | 0.13 | 0.11 | 93 | 1013.8 |
| 20260505053538 | 43 | 0 | 0.0 | 2.0 | 0.05 | 0.12 | 0.11 | 93 | 1013.7 |
| 20260505053045 | 43 | 0 | 0.0 | 2.0 | 0.04 | 0.11 | 0.10 | 93 | 1013.6 |
| 20260505052536 | 43 | 0 | 0.0 | 2.0 | 0.04 | 0.11 | 0.09 | 93 | 1013.7 |
| 20260505052036 | 43 | 0 | 0.0 | 0.0 | 0.03 | 0.10 | 0.08 | 93 | 1013.6 |
| 20260505051546 | 43 | 0 | 0.0 | 1.0 | 0.03 | 0.09 | 0.07 | 93 | 1013.7 |
| 20260505051035 | 43 | 0 | 0.0 | 1.0 | 0.03 | 0.09 | 0.07 | 93 | 1013.7 |
| 20260505050536 | 43 | 0 | 0.0 | 0.0 | 0.03 | 0.08 | 0.07 | 93 | 1013.6 |
| 20260505050122 | 43 | 0 | 0.0 | 0.0 | 0.03 | 0.08 | 0.07 | 93 | 1013.6 |
| 20260505041601 | 43 | 0 | 0.0 | 1.0 | 0.03 | 0.06 | 0.04 | 93 | 1013.9 |
| 20260505041035 | 43 | 0 | 0.0 | 1.0 | 0.03 | 0.05 | 0.03 | 93 | 1013.8 |
| 20260505040535 | 43 | 0 | 0.0 | 1.0 | 0.03 | 0.05 | 0.03 | 92 | 1013.8 |
| 20260505040052 | 43 | 0 | 0.0 | 1.0 | 0.03 | 0.05 | 0.03 | 92 | 1013.9 |
| 20260505035535 | 44 | 109 | 0.0 | 1.0 | 0.02 | 0.04 | 0.03 | 92 | 1013.9 |
| 20260505035035 | 44 | 0 | 0.0 | 2.0 | 0.02 | 0.04 | 0.03 | 92 | 1014.0 |
| 20260505034541 | 44 | 0 | 0.0 | 2.0 | 0.01 | 0.03 | 0.02 | 92 | 1013.9 |
| 20260505034036 | 43 | 0 | 0.0 | 2.0 | 0.01 | 0.03 | 0.02 | 92 | 1014.0 |
| 20260505033536 | 43 | 0 | 0.0 | 0.0 | 0.00 | 0.03 | 0.01 | 92 | 1013.9 |
| 20260505033046 | 43 | 0 | 0.0 | 0.0 | 0.00 | 0.03 | 0.01 | 91 | 1013.8 |
| 20260505032536 | 44 | 0 | 0.0 | 0.0 | 0.00 | 0.03 | 0.01 | 91 | 1013.8 |
| 20260505032035 | 44 | 0 | 0.0 | 0.0 | 0.00 | 0.02 | 0.00 | 91 | 1013.8 |
| 20260505031546 | 44 | 0 | 0.0 | 0.0 | 0.00 | 0.02 | 0.00 | 91 | 1013.9 |
| 20260505031036 | 44 | 0 | 0.0 | 0.0 | 0.00 | 0.02 | 0.00 | 91 | 1013.8 |
| 20260505030536 | 44 | 0 | 0.0 | 2.0 | 0.00 | 0.02 | 0.00 | 91 | 1013.8 |
| 20260505030049 | 44 | 0 | 0.0 | 2.0 | 0.00 | 0.02 | 0.00 | 91 | 1013.7 |
| 20260505025535 | 44 | 109 | 0.0 | 1.0 | 0.00 | 0.02 | 0.00 | 91 | 1013.8 |
| 20260505025036 | 44 | 0 | 0.0 | 1.0 | 0.00 | 0.02 | 0.00 | 91 | 1014.0 |
| 20260505024546 | 44 | 0 | 0.0 | 1.0 | 0.00 | 0.02 | 0.00 | 91 | 1014.0 |
| 20260505024036 | 44 | 0 | 0.0 | 1.0 | 0.00 | 0.02 | 0.00 | 91 | 1014.1 |
| 20260505023539 | 44 | 0 | 0.0 | 2.0 | 0.00 | 0.02 | 0.00 | 90 | 1014.2 |
| 20260505023045 | 44 | 0 | 0.0 | 2.0 | 0.00 | 0.02 | 0.00 | 90 | 1014.2 |
| 20260505022537 | 44 | 0 | 0.0 | 2.0 | 0.00 | 0.02 | 0.00 | 90 | 1014.3 |
| 20260505022037 | 44 | 109 | 0.0 | 2.0 | 0.00 | 0.02 | 0.00 | 90 | 1014.4 |
| 20260505021543 | 44 | 0 | 0.0 | 2.0 | 0.00 | 0.02 | 0.00 | 90 | 1014.6 |
| 20260505021035 | 44 | 0 | 0.0 | 2.0 | 0.00 | 0.02 | 0.00 | 89 | 1014.6 |
| 20260505020535 | 44 | 0 | 0.0 | 2.0 | 0.00 | 0.02 | 0.00 | 89 | 1014.7 |
| 20260505020041 | 44 | 0 | 0.0 | 1.0 | 0.00 | 0.02 | 0.00 | 89 | 1014.7 |
| 20260505015536 | 44 | 0 | 0.0 | 1.0 | 0.00 | 0.02 | 0.00 | 89 | 1014.7 |
| 20260505015036 | 44 | 0 | 0.0 | 2.0 | 0.00 | 0.02 | 0.00 | 88 | 1014.8 |
| 20260505014603 | 44 | 0 | 0.0 | 2.0 | 0.00 | 0.01 | 0.00 | 88 | 1015.0 |
| 20260505014040 | 44 | 0 | 0.0 | 2.0 | 0.00 | 0.01 | 0.00 | 88 | 1015.0 |
| 20260505013536 | 44 | 0 | 0.0 | 1.0 | 0.00 | 0.01 | 0.00 | 88 | 1015.1 |
| 20260505013045 | 45 | 0 | 0.0 | 2.0 | 0.00 | 0.01 | 0.00 | 88 | 1015.0 |
| 20260505012536 | 45 | 0 | 0.0 | 2.0 | 0.00 | 0.01 | 0.00 | 88 | 1015.1 |
| 20260505012036 | 45 | 0 | 0.0 | 2.0 | 0.00 | 0.01 | 0.00 | 88 | 1015.2 |
| 20260505011543 | 45 | 0 | 0.0 | 2.0 | 0.00 | 0.01 | 0.00 | 88 | 1015.2 |
| 20260505011036 | 45 | 109 | 0.0 | 2.0 | 0.00 | 0.01 | 0.00 | 87 | 1015.4 |
| 20260505010535 | 45 | 109 | 0.0 | 2.0 | 0.00 | 0.01 | 0.00 | 87 | 1015.4 |
| 20260505010042 | 45 | 0 | 0.0 | 1.0 | 0.00 | 0.01 | 0.00 | 87 | 1015.4 |
| 20260505005536 | 45 | 0 | 0.0 | 1.0 | 0.00 | 0.01 | 0.00 | 87 | 1015.5 |
| 20260505005036 | 45 | 0 | 0.0 | 1.0 | 0.00 | 0.01 | 0.00 | 87 | 1015.6 |
| 20260505004544 | 45 | 0 | 0.0 | 2.0 | 0.00 | 0.01 | 0.00 | 86 | 1015.7 |
| 20260505004035 | 45 | 0 | 0.0 | 3.0 | 0.00 | 0.01 | 0.00 | 86 | 1015.8 |
| 20260505003538 | 45 | 109 | 1.0 | 3.0 | 0.00 | 0.01 | 0.00 | 86 | 1016.0 |
| 20260505003040 | 45 | 0 | 0.0 | 1.0 | 0.00 | 0.01 | 0.00 | 85 | 1015.9 |
| 20260505002540 | 45 | 0 | 0.0 | 1.0 | 0.00 | 0.01 | 0.00 | 85 | 1016.0 |
| 20260505002036 | 45 | 0 | 0.0 | 1.0 | 0.00 | 0.01 | 0.00 | 86 | 1016.0 |
| 20260505001553 | 45 | 109 | 0.0 | 1.0 | 0.00 | 0.01 | 0.00 | 87 | 1016.2 |
| 20260505001037 | 45 | 0 | 0.0 | 1.0 | 0.00 | 0.01 | 0.00 | 86 | 1016.2 |
| 20260505000537 | 45 | 0 | 0.0 | 2.0 | 0.00 | 0.01 | 0.00 | 86 | 1016.4 |
| 20260505000103 | 45 | 0 | 0.0 | 2.0 | 0.00 | 0.01 | 0.00 | 86 | 1016.5 |
| 20260504235536 | 45 | 0 | 0.0 | 3.0 | 0.00 | 0.01 | 0.00 | 86 | 1016.5 |
| 20260504235037 | 45 | 0 | 0.0 | 3.0 | 0.00 | 0.01 | 0.00 | 86 | 1016.6 |
| 20260504234606 | 45 | 0 | 0.0 | 2.0 | 0.00 | 0.01 | 0.00 | 86 | 1016.7 |
| 20260504234035 | 45 | 0 | 0.0 | 1.0 | 0.00 | 0.01 | 0.00 | 86 | 1016.8 |
| 20260504233536 | 45 | 0 | 0.0 | 2.0 | 0.00 | 0.01 | 0.00 | 86 | 1016.8 |
| 20260504233102 | 45 | 0 | 0.0 | 2.0 | 0.00 | 0.01 | 0.00 | 86 | 1016.9 |
| 20260504232537 | 45 | 0 | 0.0 | 2.0 | 0.00 | 0.01 | 0.00 | 85 | 1017.0 |
| 20260504232036 | 45 | 109 | 0.0 | 4.0 | 0.00 | 0.01 | 0.00 | 85 | 1017.1 |
| 20260504231545 | 46 | 0 | 0.0 | 4.0 | 0.00 | 0.01 | 0.00 | 85 | 1017.1 |
| 20260504231036 | 46 | 131 | 1.0 | 4.0 | 0.00 | 0.01 | 0.00 | 84 | 1017.2 |
| 20260504230536 | 45 | 131 | 1.0 | 7.0 | 0.00 | 0.01 | 0.00 | 82 | 1017.2 |
| 20260504230046 | 45 | 0 | 1.0 | 7.0 | 0.00 | 0.01 | 0.00 | 80 | 1017.2 |
| 20260504225538 | 45 | 0 | 0.0 | 2.0 | 0.00 | 0.01 | 0.00 | 85 | 1017.5 |
| 20260504225035 | 45 | 0 | 0.0 | 2.0 | 0.00 | 0.01 | 0.00 | 86 | 1017.5 |
| 20260504224555 | 45 | 0 | 0.0 | 1.0 | 0.00 | 0.01 | 0.00 | 86 | 1017.6 |
| 20260504224036 | 45 | 65 | 0.0 | 2.0 | 0.00 | 0.01 | 0.00 | 86 | 1017.6 |
| 20260504223537 | 45 | 0 | 0.0 | 2.0 | 0.00 | 0.01 | 0.00 | 86 | 1017.7 |
| 20260504223045 | 45 | 0 | 0.0 | 2.0 | 0.00 | 0.01 | 0.00 | 86 | 1017.7 |
| 20260504222536 | 45 | 0 | 0.0 | 3.0 | 0.00 | 0.01 | 0.00 | 85 | 1017.8 |
| 20260504222036 | 45 | 0 | 0.0 | 3.0 | 0.00 | 0.01 | 0.00 | 85 | 1017.8 |
| 20260504221542 | 45 | 0 | 0.0 | 2.0 | 0.00 | 0.01 | 0.00 | 85 | 1017.8 |
| 20260504221035 | 45 | 0 | 0.0 | 1.0 | 0.00 | 0.01 | 0.00 | 85 | 1017.7 |
| 20260504220540 | 45 | 0 | 0.0 | 3.0 | 0.00 | 0.01 | 0.00 | 84 | 1017.9 |
| 20260504220041 | 45 | 0 | 0.0 | 3.0 | 0.00 | 0.01 | 0.00 | 84 | 1017.8 |
| 20260504215536 | 45 | 24 | 0.0 | 2.0 | 0.00 | 0.01 | 0.01 | 85 | 1017.8 |
| 20260504215036 | 45 | 0 | 0.0 | 1.0 | 0.00 | 0.01 | 0.01 | 85 | 1017.8 |
| 20260504214544 | 46 | 0 | 0.0 | 1.0 | 0.00 | 0.01 | 0.01 | 85 | 1017.9 |
| 20260504214036 | 46 | 0 | 0.0 | 2.0 | 0.00 | 0.01 | 0.01 | 85 | 1018.0 |
| 20260504213536 | 46 | 0 | 0.0 | 3.0 | 0.00 | 0.01 | 0.01 | 86 | 1018.1 |
| 20260504213102 | 46 | 0 | 0.0 | 3.0 | 0.00 | 0.01 | 0.01 | 85 | 1018.0 |
| 20260504212537 | 46 | 141 | 1.0 | 3.0 | 0.00 | 0.01 | 0.01 | 85 | 1018.1 |
| 20260504212038 | 46 | 0 | 0.0 | 2.0 | 0.00 | 0.01 | 0.01 | 83 | 1018.0 |
| 20260504211543 | 46 | 0 | 0.0 | 2.0 | 0.00 | 0.01 | 0.01 | 84 | 1018.1 |
| 20260504211036 | 46 | 0 | 0.0 | 2.0 | 0.00 | 0.01 | 0.01 | 85 | 1018.2 |
| 20260504210539 | 46 | 0 | 0.0 | 2.0 | 0.00 | 0.01 | 0.01 | 82 | 1018.2 |
| 20260504210047 | 46 | 0 | 0.0 | 2.0 | 0.00 | 0.01 | 0.01 | 81 | 1018.2 |
| 20260504205536 | 46 | 0 | 0.0 | 2.0 | 0.00 | 0.01 | 0.01 | 81 | 1018.4 |
| 20260504205038 | 46 | 98 | 0.0 | 2.0 | 0.00 | 0.01 | 0.01 | 84 | 1018.4 |
| 20260504204548 | 46 | 0 | 0.0 | 2.0 | 0.00 | 0.01 | 0.01 | 85 | 1018.4 |
| 20260504204036 | 46 | 98 | 0.0 | 3.0 | 0.00 | 0.01 | 0.01 | 83 | 1018.5 |
| 20260504203536 | 46 | 0 | 0.0 | 3.0 | 0.00 | 0.01 | 0.01 | 85 | 1018.6 |
| 20260504203059 | 46 | 98 | 1.0 | 3.0 | 0.00 | 0.01 | 0.01 | 87 | 1018.6 |
| 20260504202536 | 46 | 0 | 0.0 | 3.0 | 0.00 | 0.01 | 0.01 | 86 | 1018.6 |
| 20260504202036 | 46 | 0 | 0.0 | 3.0 | 0.00 | 0.01 | 0.01 | 86 | 1018.6 |
| 20260504201543 | 46 | 0 | 0.0 | 2.0 | 0.00 | 0.01 | 0.01 | 86 | 1018.6 |
| 20260504201037 | 46 | 0 | 0.0 | 2.0 | 0.00 | 0.01 | 0.01 | 86 | 1018.6 |
| 20260504200537 | 46 | 0 | 0.0 | 1.0 | 0.00 | 0.01 | 0.01 | 85 | 1018.5 |
| 20260504200046 | 46 | 0 | 0.0 | 2.0 | 0.00 | 0.01 | 0.01 | 85 | 1018.5 |
| 20260504195535 | 46 | 0 | 0.0 | 3.0 | 0.00 | 0.01 | 0.01 | 85 | 1018.4 |
| 20260504195039 | 46 | 0 | 0.0 | 3.0 | 0.00 | 0.01 | 0.01 | 85 | 1018.4 |
| 20260504194556 | 46 | 0 | 1.0 | 3.0 | 0.00 | 0.01 | 0.01 | 85 | 1018.3 |
| 20260504194036 | 46 | 119 | 1.0 | 3.0 | 0.00 | 0.01 | 0.01 | 84 | 1018.4 |
| 20260504193536 | 46 | 119 | 1.0 | 3.0 | 0.00 | 0.01 | 0.01 | 81 | 1018.3 |
| 20260504193058 | 46 | 0 | 0.0 | 2.0 | 0.00 | 0.01 | 0.01 | 82 | 1018.3 |
| 20260504192537 | 46 | 0 | 0.0 | 3.0 | 0.00 | 0.01 | 0.01 | 81 | 1018.2 |
| 20260504192036 | 46 | 0 | 0.0 | 4.0 | 0.00 | 0.01 | 0.01 | 81 | 1018.2 |
| 20260504191549 | 46 | 0 | 0.0 | 4.0 | 0.01 | 0.01 | 0.01 | 81 | 1018.1 |
| 20260504191036 | 46 | 33 | 1.0 | 4.0 | 0.01 | 0.01 | 0.01 | 81 | 1018.2 |
| 20260504190536 | 46 | 41 | 0.0 | 3.0 | 0.01 | 0.01 | 0.01 | 82 | 1018.2 |
| 20260504190055 | 47 | 57 | 1.0 | 4.0 | 0.01 | 0.01 | 0.01 | 81 | 1018.3 |
| 20260504185535 | 47 | 0 | 0.0 | 4.0 | 0.01 | 0.01 | 0.01 | 82 | 1018.2 |
| 20260504185035 | 47 | 48 | 0.0 | 4.0 | 0.01 | 0.01 | 0.01 | 82 | 1018.3 |
| 20260504184543 | 47 | 44 | 1.0 | 3.0 | 0.01 | 0.01 | 0.01 | 81 | 1018.2 |
| 20260504184036 | 48 | 49 | 1.0 | 3.0 | 0.01 | 0.01 | 0.01 | 81 | 1018.3 |
| 20260504183539 | 48 | 31 | 0.0 | 3.0 | 0.01 | 0.01 | 0.01 | 79 | 1018.2 |
| 20260504183042 | 48 | 25 | 1.0 | 3.0 | 0.00 | 0.00 | 0.00 | 80 | 1018.2 |
| 20260504182539 | 49 | 63 | 0.0 | 3.0 | 0.00 | 0.00 | 0.00 | 80 | 1018.2 |
| 20260504182036 | 49 | 0 | 1.0 | 3.0 | 0.00 | 0.00 | 0.00 | 80 | 1018.1 |
| 20260504181544 | 50 | 29 | 0.0 | 3.0 | 0.00 | 0.00 | 0.00 | 78 | 1018.0 |
| 20260504181036 | 50 | 0 | 0.0 | 3.0 | 0.00 | 0.00 | 0.00 | 74 | 1017.9 |
| 20260504180535 | 50 | 28 | 0.0 | 3.0 | 0.00 | 0.00 | 0.00 | 76 | 1017.9 |
| 20260504180051 | 50 | 0 | 0.0 | 3.0 | 0.00 | 0.00 | 0.00 | 75 | 1017.7 |
| 20260504175537 | 50 | 0 | 1.0 | 3.0 | 0.00 | 0.00 | 0.00 | 75 | 1017.9 |
| 20260504175040 | 50 | 0 | 0.0 | 2.0 | 0.00 | 0.00 | 0.00 | 74 | 1017.8 |
| 20260504174545 | 50 | 130 | 0.0 | 2.0 | 0.00 | 0.00 | 0.00 | 74 | 1017.8 |
| 20260504174036 | 51 | 130 | 0.0 | 1.0 | 0.00 | 0.00 | 0.00 | 74 | 1017.7 |
| 20260504173535 | 51 | 0 | 0.0 | 3.0 | 0.00 | 0.00 | 0.00 | 73 | 1017.7 |
| 20260504173049 | 51 | 0 | 1.0 | 3.0 | 0.00 | 0.00 | 0.00 | 74 | 1017.6 |
| 20260504172536 | 51 | 130 | 1.0 | 2.0 | 0.00 | 0.00 | 0.00 | 74 | 1017.4 |
| 20260504172037 | 51 | 0 | 0.0 | 1.0 | 0.00 | 0.00 | 0.00 | 73 | 1017.4 |
| 20260504171542 | 51 | 0.0 | 0.0 | 0.00 | 0.00 | 0.00 | 71 | 1017.3 | |
| 20260504171037 | 51 | 0.0 | 0.0 | 0.00 | 0.00 | 0.00 | 71 | 1017.4 | |
| 20260504170537 | 51 | 0 | 0.0 | 1.0 | 0.00 | 0.00 | 0.00 | 71 | 1017.3 |